Location: Unspecified
(42.3650°N, 71.1030°W)
Time: 21:25:15
(UTC+00:00)

Courier 1B Rocket - Visible Passes

Search period start: 25 June 2024 00:00
Search period end: 05 July 2024 00:00
Orbit: 920 x 1201 km, 28.2° (Epoch: 25 June)

Date Brightness Start Highest point End Pass type
(mag) Time Alt. Az. Time Alt. Az. Time Alt. Az.
25 Jun 6.5 06:22:35 18° SSE 06:22:35 18° SSE 06:25:43 10° ESE visible
25 Jun 6.2 08:08:55 12° SW 08:13:40 24° S 08:19:07 10° SE visible
26 Jun 6.1 07:11:30 22° SSW 07:12:46 23° S 07:17:58 10° SE visible
27 Jun 6.5 06:14:08 18° SE 06:14:08 18° SE 06:16:43 10° SE visible
27 Jun 6.2 08:00:30 14° SW 08:04:24 23° S 08:09:33 10° SE visible
28 Jun 6.1 07:03:14 23° S 07:03:31 23° S 07:08:36 10° SE visible
29 Jun 6.7 06:06:06 15° SE 06:06:06 15° SE 06:07:32 10° SE visible
29 Jun 6.3 07:52:29 15° SW 07:55:09 20° S 07:59:47 10° SSE visible
30 Jun 6.3 06:55:32 20° S 06:55:32 20° S 06:59:04 10° SE visible
01 Jul 6.4 07:45:10 16° SSW 07:45:52 16° SSW 07:49:41 10° SSE visible
02 Jul 6.8 06:48:37 12° SSE 06:48:37 12° SSE 06:49:20 10° SSE visible
03 Jul 6.8 01:57:16 10° S 01:57:29 10° S 01:57:29 10° S visible
03 Jul 6.8 07:38:42 10° S 07:38:42 10° S 07:38:52 10° S visible
04 Jul 6.8 02:46:50 10° SSW 02:47:27 12° SSW 02:47:27 12° SSW visible
